Simultaneous Nadir Overpasses (SNOs) Predictions

Prediction of SNOs between FY3D and NOAA-19 Satellite Orbit:

Table of predicted SNOs for the next 14.0 days since TLE Epoch: 3/11/2023
Index Date (FY3D) Time (FY3D) Lat,Lon (FY3D) SZA (FY3D ) Date (NOAA-19) Time (NOAA-19) Lat,Lon (NOAA-19) SZA (NOAA-19 ) Distance(km) Time Diff (sec)
1 03/19/2023 23:08:54 76.75,-177.95 77.37 03/19/2023 23:07:41 76.75,-178.08 77.39 3.41 73
2 03/19/2023 23:59:39 -76.76, -10.67 102.64 03/19/2023 23:58:38 -76.77, -10.74 102.61 2.08 61
3 03/20/2023 00:50:26 76.77, 156.59 77.36 03/20/2023 00:49:40 76.76, 156.48 77.37 2.92 46
4 03/20/2023 01:41:11 -76.78, -36.13 102.65 03/20/2023 01:40:37 -76.78, -36.18 102.63 1.15 34
5 03/20/2023 02:31:58 76.79, 131.13 77.36 03/20/2023 02:31:39 76.78, 131.04 77.35 2.75 19
6 03/20/2023 03:22:43 -76.80, -61.60 102.65 03/20/2023 03:22:36 -76.79, -61.62 102.65 0.67 7
7 03/20/2023 04:13:30 76.81, 105.66 77.35 03/20/2023 04:13:38 76.79, 105.60 77.33 2.98 8
8 03/20/2023 05:04:15 -76.82, -87.06 102.65 03/20/2023 05:04:35 -76.81, -87.06 102.67 1.31 20
9 03/20/2023 05:55:02 76.83, 80.20 77.35 03/20/2023 05:55:37 76.80, 80.16 77.32 3.52 35
10 03/20/2023 06:45:47 -76.84,-112.53 102.66 03/20/2023 06:46:34 -76.82,-112.49 102.69 2.27 47
11 03/20/2023 07:36:34 76.85, 54.74 77.35 03/20/2023 07:37:35 76.85, 54.90 77.33 4.09 61
12 03/20/2023 08:27:19 -76.86,-137.99 102.66 03/20/2023 08:28:33 -76.83,-137.93 102.71 3.28 74



Historial Predications of SNOs between FY3D and NOAA-19
